PTR2217 CYKF-CYXU

Flight info

Callsign PTR2217
Flight time 0h 26m
Altitude 10000
Route DERLO
Aircraft DH8D/M-SDE2E3FGRY/H

Departure

Time 2026-04-25 01:15
Airport Region of Waterloo International Airport (CYKF)

Arrival

Time 2026-04-25 01:41
Airport London International Airport (CYXU)
Time Latitude Longitude Altitude Speed Heading
2026-04-25 00:44 43.45670 -80.38580 1035 ft 0 kts 214°
2026-04-25 00:54 43.45670 -80.38581 1035 ft 0 kts 214°
2026-04-25 00:54 43.45696 -80.38553 1035 ft 11 kts 233°
2026-04-25 00:54 43.45701 -80.38532 1035 ft 0 kts 299°
2026-04-25 00:55 43.45706 -80.38539 1035 ft 6 kts 317°
2026-04-25 00:55 43.45743 -80.38635 1035 ft 9 kts 251°
2026-04-25 00:56 43.45693 -80.38786 1033 ft 27 kts 246°
2026-04-25 00:56 43.45707 -80.38900 1031 ft 0 kts 336°
2026-04-25 00:57 43.45760 -80.38933 1031 ft 12 kts 335°
2026-04-25 00:57 43.45812 -80.38920 1033 ft 0 kts 65°
2026-04-25 00:59 43.45815 -80.38911 1033 ft 7 kts 65°
2026-04-25 00:59 43.45874 -80.38725 1035 ft 31 kts 65°
2026-04-25 01:00 43.45971 -80.38660 1035 ft 22 kts 294°
2026-04-25 01:00 43.46101 -80.38905 1035 ft 35 kts 308°
2026-04-25 01:00 43.46222 -80.39127 1035 ft 22 kts 277°
2026-04-25 01:00 43.46056 -80.39171 1033 ft 38 kts 148°
2026-04-25 01:01 43.45889 -80.39031 1032 ft 0 kts 148°
2026-04-25 01:14 43.45828 -80.38976 1032 ft 23 kts 130°
2026-04-25 01:14 43.45905 -80.38637 1035 ft 71 kts 64°
2026-04-25 01:15 43.46273 -80.37534 1079 ft 170 kts 67°
2026-04-25 01:15 43.46789 -80.35836 1617 ft 215 kts 68°
2026-04-25 01:15 43.47418 -80.33895 2449 ft 227 kts 65°
2026-04-25 01:15 43.48082 -80.31950 3329 ft 232 kts 66°
2026-04-25 01:16 43.48795 -80.29790 3235 ft 251 kts 66°
2026-04-25 01:16 43.49451 -80.27818 4059 ft 198 kts 66°
2026-04-25 01:16 43.49985 -80.25961 4068 ft 221 kts 72°
2026-04-25 01:16 43.50497 -80.23839 4249 ft 240 kts 69°
2026-04-25 01:17 43.51115 -80.21801 4301 ft 229 kts 66°
2026-04-25 01:17 43.51560 -80.20469 3908 ft 230 kts 65°
2026-04-25 01:17 43.52438 -80.17865 3631 ft 237 kts 66°
2026-04-25 01:17 43.53108 -80.15833 3894 ft 229 kts 66°
2026-04-25 01:18 43.53778 -80.13802 3929 ft 239 kts 66°
2026-04-25 01:18 43.54380 -80.11608 3926 ft 248 kts 79°
2026-04-25 01:18 43.54493 -80.09221 3949 ft 254 kts 81°
2026-04-25 01:18 43.54961 -80.06815 3937 ft 259 kts 70°
2026-04-25 01:19 43.55989 -80.04803 3949 ft 258 kts 41°
2026-04-25 01:19 43.57539 -80.03735 4216 ft 245 kts 11°
2026-04-25 01:19 43.59184 -80.03835 4502 ft 232 kts 341°
2026-04-25 01:19 43.60516 -80.04999 4617 ft 228 kts 311°
2026-04-25 01:20 43.61207 -80.06956 5062 ft 227 kts 279°
2026-04-25 01:20 43.61036 -80.09106 5488 ft 225 kts 248°
2026-04-25 01:20 43.60303 -80.11011 5796 ft 231 kts 240°
2026-04-25 01:20 43.59437 -80.12965 5903 ft 243 kts 238°
2026-04-25 01:21 43.58501 -80.14926 5930 ft 247 kts 237°
2026-04-25 01:21 43.57517 -80.16904 5938 ft 251 kts 236°
2026-04-25 01:21 43.56516 -80.18870 5939 ft 254 kts 236°
2026-04-25 01:21 43.55470 -80.20890 5940 ft 255 kts 235°
2026-04-25 01:22 43.54442 -80.22842 5938 ft 253 kts 235°
2026-04-25 01:22 43.53507 -80.24918 5938 ft 251 kts 242°
2026-04-25 01:22 43.52706 -80.27033 5937 ft 249 kts 243°
2026-04-25 01:22 43.51915 -80.29139 5938 ft 248 kts 243°
2026-04-25 01:23 43.51122 -80.31249 5939 ft 247 kts 243°
2026-04-25 01:23 43.50328 -80.33357 5938 ft 246 kts 243°
2026-04-25 01:23 43.49541 -80.35443 5940 ft 245 kts 243°
2026-04-25 01:23 43.48746 -80.37546 5940 ft 245 kts 243°
2026-04-25 01:24 43.47956 -80.39631 5939 ft 245 kts 243°
2026-04-25 01:24 43.47175 -80.41688 5939 ft 245 kts 243°
2026-04-25 01:24 43.46388 -80.43761 5940 ft 245 kts 243°
2026-04-25 01:24 43.45593 -80.45854 5941 ft 245 kts 243°
2026-04-25 01:25 43.44800 -80.47936 5940 ft 245 kts 243°
2026-04-25 01:25 43.44014 -80.49999 5940 ft 245 kts 243°
2026-04-25 01:25 43.43224 -80.52074 5940 ft 245 kts 243°
2026-04-25 01:25 43.42430 -80.54155 5939 ft 245 kts 243°
2026-04-25 01:26 43.41640 -80.56222 5939 ft 245 kts 243°
2026-04-25 01:26 43.40841 -80.58311 5939 ft 245 kts 243°
2026-04-25 01:26 43.40042 -80.60394 5938 ft 245 kts 243°
2026-04-25 01:26 43.39245 -80.62471 5937 ft 245 kts 243°
2026-04-25 01:27 43.38452 -80.64539 5937 ft 245 kts 243°
2026-04-25 01:27 43.37649 -80.66631 5937 ft 245 kts 242°
2026-04-25 01:27 43.36852 -80.68709 5937 ft 246 kts 242°
2026-04-25 01:28 43.35261 -80.72849 5936 ft 246 kts 242°
2026-04-25 01:28 43.34454 -80.74946 5936 ft 246 kts 242°
2026-04-25 01:28 43.33663 -80.77002 5936 ft 246 kts 242°
2026-04-25 01:28 43.32854 -80.79103 5937 ft 246 kts 242°
2026-04-25 01:29 43.32056 -80.81174 5936 ft 246 kts 242°
2026-04-25 01:29 43.31256 -80.83249 5937 ft 246 kts 242°
2026-04-25 01:29 43.30458 -80.85317 5936 ft 246 kts 242°
2026-04-25 01:29 43.29657 -80.87391 5937 ft 246 kts 242°
2026-04-25 01:30 43.28852 -80.89475 5937 ft 246 kts 242°
2026-04-25 01:30 43.28045 -80.91562 5936 ft 246 kts 242°
2026-04-25 01:30 43.27242 -80.93637 5937 ft 246 kts 242°
2026-04-25 01:30 43.26442 -80.95701 5937 ft 246 kts 242°
2026-04-25 01:31 43.25639 -80.97774 5937 ft 246 kts 242°
2026-04-25 01:31 43.24837 -80.99842 5937 ft 246 kts 242°
2026-04-25 01:31 43.24026 -81.01932 5938 ft 246 kts 242°
2026-04-25 01:31 43.23221 -81.04003 5938 ft 246 kts 242°
2026-04-25 01:32 43.22416 -81.06074 5939 ft 246 kts 242°
2026-04-25 01:32 43.21606 -81.08157 5939 ft 246 kts 242°
2026-04-25 01:32 43.20799 -81.10231 5942 ft 246 kts 243°
2026-04-25 01:32 43.19999 -81.12284 5941 ft 246 kts 243°
2026-04-25 01:33 43.19183 -81.14378 5939 ft 246 kts 243°
2026-04-25 01:33 43.18386 -81.16424 5944 ft 246 kts 243°
2026-04-25 01:33 43.17572 -81.18502 5951 ft 246 kts 242°
2026-04-25 01:33 43.16769 -81.20561 5953 ft 246 kts 242°
2026-04-25 01:34 43.15964 -81.22619 5918 ft 247 kts 242°
2026-04-25 01:34 43.15140 -81.24728 5720 ft 255 kts 242°
2026-04-25 01:34 43.14312 -81.26837 5434 ft 242 kts 242°
2026-04-25 01:34 43.13530 -81.28822 5162 ft 234 kts 242°
2026-04-25 01:35 43.12765 -81.30769 4885 ft 228 kts 242°
2026-04-25 01:35 43.12043 -81.32596 4717 ft 219 kts 242°
2026-04-25 01:35 43.11323 -81.34438 4398 ft 217 kts 242°
2026-04-25 01:35 43.10612 -81.36247 4114 ft 214 kts 242°
2026-04-25 01:36 43.09904 -81.38046 3845 ft 211 kts 242°
2026-04-25 01:36 43.09122 -81.39691 3730 ft 201 kts 224°
2026-04-25 01:36 43.07872 -81.40331 3747 ft 197 kts 182°
2026-04-25 01:36 43.06490 -81.40119 3782 ft 201 kts 174°
2026-04-25 01:37 43.05093 -81.39805 3810 ft 204 kts 173°
2026-04-25 01:37 43.03683 -81.39465 3835 ft 207 kts 173°
2026-04-25 01:37 43.02242 -81.39040 3736 ft 217 kts 162°
2026-04-25 01:37 43.01084 -81.37675 3612 ft 228 kts 120°
2026-04-25 01:38 43.00827 -81.35524 3449 ft 237 kts 84°
2026-04-25 01:38 43.01148 -81.33312 3196 ft 234 kts 78°
2026-04-25 01:38 43.01501 -81.31229 2979 ft 218 kts 78°
2026-04-25 01:38 43.01826 -81.29250 2733 ft 206 kts 79°
2026-04-25 01:39 43.02125 -81.27402 2439 ft 190 kts 79°
2026-04-25 01:39 43.02394 -81.25712 2198 ft 173 kts 79°
2026-04-25 01:39 43.02636 -81.24174 1987 ft 158 kts 80°
2026-04-25 01:39 43.02864 -81.22694 1838 ft 158 kts 80°
2026-04-25 01:40 43.03096 -81.21240 1735 ft 159 kts 80°
2026-04-25 01:40 43.03327 -81.19752 1548 ft 161 kts 81°
2026-04-25 01:40 43.03527 -81.18278 1329 ft 152 kts 81°
2026-04-25 01:40 43.03741 -81.16885 1080 ft 150 kts 81°
2026-04-25 01:41 43.03914 -81.15588 918 ft 80 kts 78°
2026-04-25 01:41 43.03994 -81.15040 918 ft 59 kts 81°
2026-04-25 01:41 43.04056 -81.14621 915 ft 30 kts 77°
2026-04-25 01:41 43.03969 -81.14449 915 ft 31 kts 163°
2026-04-25 01:42 43.03880 -81.14407 915 ft 12 kts 165°
2026-04-25 01:42 43.03756 -81.14524 914 ft 31 kts 225°
2026-04-25 01:42 43.03584 -81.14754 915 ft 33 kts 224°
2026-04-25 01:42 43.03387 -81.15020 913 ft 45 kts 225°
2026-04-25 01:43 43.03221 -81.15114 910 ft 22 kts 134°
2026-04-25 01:43 43.03051 -81.14911 908 ft 36 kts 137°
2026-04-25 01:43 43.02958 -81.14850 908 ft 9 kts 220°